Date String (YYYY-MM-DD hh:mm:ss) UTC,Instrument flags,absolute air pressure of the measurement (hPa),sample flow rate (lpm),inlet stack bypass flow (lpm),air temperature of the measurement (°C),ambient temperature measured by the external sensor (°C),aerosol sample conditioner tube jacket temperature (°C),OPC LED temperature (°C),internal box temperature (°C),relative humidity of the measurement (%),span deviation,mass concentration of particles derived from Lorenz-Mie calculation of OPC scattering (μg/m³),mass concentration of particles derived from Lorenz-Mie calculation of OPC scattering (μg/m³),mass concentration of particles derived from Lorenz-Mie calculation of OPC scattering (μg/m³)
DateTimeUTC,F1_M11,P_M11,Q1_M11,Q2_M11,T1_M11,T2_M11,T3_M11,T4_M11,T5_M11,U1_M11,ZSPAN_M11,X2_M11,X0_M11,X1_M11
2023-10-22 00:00:00,SystemResetWarning,0827.1,5.01,000.00,028.2,027.1,000.0,036.5,030.1,12.9,0000.0,0004.26,0017.01,0002.64
2023-10-22 00:01:00,SystemResetWarning,0827.2,5.00,000.00,028.3,027.3,000.0,036.5,030.2,12.9,0000.0,0004.29,0017.22,0002.66
2023-10-22 00:02:00,SystemResetWarning,0827.2,4.98,000.00,028.3,026.8,000.0,036.5,030.2,12.7,0000.0,0004.34,0018.33,0002.70
2023-10-22 00:03:00,SystemResetWarning,0827.2,5.00,000.00,028.2,024.8,000.0,036.5,029.9,12.7,0000.0,0004.40,0019.12,0002.71
2023-10-22 00:04:00,SystemResetWarning,0827.1,5.00,000.00,028.2,024.0,000.0,036.4,029.7,12.7,0000.0,0004.42,0019.14,0002.71
2023-10-22 00:05:00,SystemResetWarning,0827.1,5.02,000.00,028.1,024.1,000.0,036.4,029.6,12.7,0000.0,0004.41,0019.32,0002.66
2023-10-22 00:06:00,SystemResetWarning,0827.2,5.00,000.00,028.0,024.5,000.0,036.4,029.5,12.7,0000.0,0004.32,0019.56,0002.60
2023-10-22 00:07:00,SystemResetWarning,0827.2,5.00,000.00,028.0,025.0,000.0,036.4,029.6,12.7,0000.0,0004.34,0019.30,0002.55
2023-10-22 00:08:00,SystemResetWarning,0827.2,5.00,000.00,028.0,025.4,000.0,036.4,029.6,12.6,0000.0,0004.34,0018.68,0002.53
2023-10-22 00:09:00,SystemResetWarning,0827.2,5.00,000.00,028.0,025.9,000.0,036.4,029.7,12.7,0000.0,0004.30,0019.41,0002.50
2023-10-22 00:10:00,SystemResetWarning,0827.3,5.00,000.00,028.0,026.2,000.0,036.4,029.8,12.7,0000.0,0004.28,0019.62,0002.47
2023-10-22 00:11:00,SystemResetWarning,0827.2,5.00,000.00,028.1,026.5,000.0,036.5,029.9,12.6,0000.0,0004.34,0020.12,0002.44
2023-10-22 00:12:00,SystemResetWarning,0827.3,5.00,000.00,028.1,026.8,000.0,036.5,030.0,12.5,0000.0,0004.41,0020.60,0002.43
2023-10-22 00:13:00,SystemResetWarning,0827.4,5.00,000.00,028.2,027.0,000.0,036.5,030.0,12.5,0000.0,0004.38,0018.46,0002.40
2023-10-22 00:14:00,SystemResetWarning,0827.4,5.00,000.00,028.2,027.2,000.0,036.5,030.1,12.5,0000.0,0004.41,0018.63,0002.36
2023-10-22 00:15:00,SystemResetWarning,0827.4,5.00,000.00,028.3,027.4,000.0,036.6,030.2,12.4,0000.0,0004.43,0019.19,0002.34
2023-10-22 00:16:00,SystemResetWarning,0827.4,4.98,000.00,028.3,026.5,000.0,036.6,030.2,12.4,0000.0,0004.44,0018.84,0002.34
2023-10-22 00:17:00,SystemResetWarning,0827.3,5.00,000.00,028.3,024.4,000.0,036.5,029.9,12.5,0000.0,0004.49,0019.12,0002.35
2023-10-22 00:18:00,SystemResetWarning,0827.4,5.01,000.00,028.2,023.8,000.0,036.4,029.7,12.6,0000.0,0004.47,0019.65,0002.34
2023-10-22 00:19:00,SystemResetWarning,0827.3,5.00,000.00,028.1,024.1,000.0,036.4,029.5,12.7,0000.0,0004.43,0020.29,0002.31
2023-10-22 00:20:00,SystemResetWarning,0827.2,5.00,000.00,028.0,024.5,000.0,036.4,029.5,12.6,0000.0,0004.36,0019.18,0002.29
2023-10-22 00:21:00,SystemResetWarning,0827.3,5.00,000.00,027.9,024.9,000.0,036.4,029.5,12.6,0000.0,0004.33,0019.18,0002.28
2023-10-22 00:22:00,SystemResetWarning,0827.3,5.00,000.00,028.0,025.4,000.0,036.4,029.6,12.6,0000.0,0004.33,0018.77,0002.27
2023-10-22 00:23:00,SystemResetWarning,0827.4,5.00,000.00,028.0,025.8,000.0,036.4,029.7,12.5,0000.0,0004.26,0018.65,0002.26
2023-10-22 00:24:00,SystemResetWarning,0827.4,5.00,000.00,028.0,026.2,000.0,036.5,029.8,12.4,0000.0,0004.26,0019.23,0002.26
2023-10-22 00:25:00,SystemResetWarning,0827.4,5.00,000.00,028.1,026.5,000.0,036.5,029.9,12.3,0000.0,0004.25,0018.57,0002.28
2023-10-22 00:26:00,SystemResetWarning,0827.4,5.01,000.00,028.1,026.7,000.0,036.5,029.9,12.3,0000.0,0004.29,0018.21,0002.28
2023-10-22 00:27:00,SystemResetWarning,0827.4,4.99,000.00,028.2,026.9,000.0,036.5,030.0,12.3,0000.0,0004.32,0018.39,0002.27
2023-10-22 00:28:00,SystemResetWarning,0827.3,5.00,000.00,028.2,027.1,000.0,036.5,030.1,12.3,0000.0,0004.34,0018.38,0002.25
2023-10-22 00:29:00,SystemResetWarning,0827.4,5.00,000.00,028.3,027.3,000.0,036.6,030.1,12.3,0000.0,0004.28,0018.67,0002.24
2023-10-22 00:30:00,SystemResetWarning,0827.4,5.00,000.00,028.3,027.4,000.0,036.6,030.2,12.3,0000.0,0004.35,0018.86,0002.22
2023-10-22 00:31:00,SystemResetWarning,0827.4,4.99,000.00,028.3,026.3,000.0,036.6,030.1,12.2,0000.0,0004.44,0020.27,0002.22
2023-10-22 00:32:00,SystemResetWarning,0827.4,5.01,000.00,028.3,024.8,000.0,036.5,030.0,12.0,0000.0,0004.47,0020.17,0002.21
2023-10-22 00:33:00,SystemResetWarning,0827.4,5.01,000.00,028.2,024.7,000.0,036.5,029.9,12.1,0000.0,0004.47,0019.74,0002.20
2023-10-22 00:34:00,SystemResetWarning,0827.4,4.99,000.00,028.1,025.0,000.0,036.5,029.7,12.1,0000.0,0004.50,0019.84,0002.18
2023-10-22 00:35:00,SystemResetWarning,0827.4,5.00,000.00,028.1,025.3,000.0,036.5,029.7,12.2,0000.0,0004.54,0019.73,0002.19
2023-10-22 00:36:00,SystemResetWarning,0827.4,5.01,000.00,028.1,025.7,000.0,036.5,029.8,12.2,0000.0,0004.52,0020.80,0002.18
2023-10-22 00:37:00,SystemResetWarning,0827.4,5.00,000.00,028.1,026.1,000.0,036.6,029.9,12.3,0000.0,0004.45,0021.65,0002.17
2023-10-22 00:38:00,SystemResetWarning,0827.4,4.99,000.00,028.2,026.4,000.0,036.6,030.0,12.2,0000.0,0004.43,0021.80,0002.16
2023-10-22 00:39:00,SystemResetWarning,0827.4,5.00,000.00,028.2,026.7,000.0,036.6,030.0,12.1,0000.0,0004.34,0020.92,0002.14
2023-10-22 00:40:00,SystemResetWarning,0827.4,5.00,000.00,028.3,026.9,000.0,036.6,030.1,12.1,0000.0,0004.32,0020.35,0002.12
2023-10-22 00:41:00,SystemResetWarning,0827.6,5.00,000.00,028.3,027.1,000.0,036.6,030.1,12.1,0000.0,0004.27,0019.63,0002.11
2023-10-22 00:42:00,SystemResetWarning,0827.4,5.01,000.00,028.3,027.3,000.0,036.7,030.2,12.0,0000.0,0004.20,0018.80,0002.10
2023-10-22 00:43:00,SystemResetWarning,0827.4,5.00,000.00,028.4,026.7,000.0,036.7,030.2,12.0,0000.0,0004.11,0017.93,0002.08
2023-10-22 00:44:00,SystemResetWarning,0827.4,5.00,000.00,028.3,025.0,000.0,036.6,030.0,12.0,0000.0,0004.04,0017.67,0002.08
2023-10-22 00:45:00,SystemResetWarning,0827.4,5.02,000.00,028.3,024.6,000.0,036.6,029.9,12.0,0000.0,0004.00,0017.13,0002.09
2023-10-22 00:46:00,SystemResetWarning,0827.4,5.00,000.00,028.2,024.8,000.0,036.6,029.7,12.0,0000.0,0004.00,0018.31,0002.08
2023-10-22 00:47:00,SystemResetWarning,0827.4,5.00,000.00,028.1,025.1,000.0,036.6,029.7,12.0,0000.0,0004.04,0018.77,0002.09
2023-10-22 00:48:00,SystemResetWarning,0827.4,5.00,000.00,028.1,025.5,000.0,036.6,029.8,12.0,0000.0,0004.05,0018.90,0002.09
2023-10-22 00:49:00,SystemResetWarning,0827.4,4.99,000.00,028.1,025.9,000.0,036.6,029.8,11.9,0000.0,0004.02,0019.00,0002.10
2023-10-22 00:50:00,SystemResetWarning,0827.4,5.00,000.00,028.2,026.2,000.0,036.6,029.9,11.9,0000.0,0004.01,0018.87,0002.12
2023-10-22 00:51:00,SystemResetWarning,0827.6,5.00,000.00,028.2,026.5,000.0,036.6,030.0,11.9,0000.0,0004.02,0019.09,0002.14
2023-10-22 00:52:00,SystemResetWarning,0827.8,5.00,000.00,028.2,026.8,000.0,036.6,030.0,11.9,0000.0,0003.98,0020.35,0002.16
2023-10-22 00:53:00,SystemResetWarning,0827.7,5.00,000.00,028.3,027.0,000.0,036.7,030.1,11.8,0000.0,0004.00,0020.56,0002.17
2023-10-22 00:54:00,SystemResetWarning,0827.5,4.99,000.00,028.3,027.1,000.0,036.7,030.1,11.8,0000.0,0004.10,0021.82,0002.19
2023-10-22 00:55:00,SystemResetWarning,0827.5,4.99,000.00,028.4,027.3,000.0,036.7,030.2,11.8,0000.0,0004.15,0022.59,0002.22
2023-10-22 00:56:00,SystemResetWarning,0827.5,4.99,000.00,028.4,026.3,000.0,036.7,030.2,11.7,0000.0,0004.13,0021.84,0002.22
2023-10-22 00:57:00,SystemResetWarning,0827.6,5.01,000.00,028.3,024.7,000.0,036.6,030.0,11.8,0000.0,0004.13,0020.43,0002.22
2023-10-22 00:58:00,SystemResetWarning,0827.5,5.01,000.00,028.2,024.5,000.0,036.6,029.8,11.8,0000.0,0004.07,0018.83,0002.21
2023-10-22 00:59:00,SystemResetWarning,0827.5,5.00,000.00,028.1,024.7,000.0,036.6,029.6,11.9,0000.0,0004.05,0017.76,0002.20
